Blair, NE

8:09 AM CDT on July 25, 2017 (GMT -0500)
Blair Municipal

Weather History for KBTA - October, 2013

Change the Weather History Date:

Friday, October 18, 2013

  Actual Average (KOMA) Record (KOMA)
Temperature  
Mean Temperature 42 °F -  
Max Temperature 50 °F 59 °F 86 °F (1950)
Min Temperature 33 °F 38 °F 20 °F (1972)
Degree Days  
Heating Degree Days 24    
Moisture  
Dew Point 30 °F    
Average Humidity 68    
Maximum Humidity 88    
Minimum Humidity 39    
Precipitation  
Precipitation 0.00 in - - ()
Sea Level Pressure  
Sea Level Pressure 30.05 in    
Wind  
Wind Speed 7 mph (West)    
Max Wind Speed 10 mph    
Max Gust Speed -    
Visibility 10 miles    
Events      
Averages and records for this station are not official NWS values.
T = Trace of Precipitation, MM = Missing Value Source: NWS Daily Summary

Daily Weather History Graph

Daily Weather History Graph

Search for Another Location

Airport or City:

Trip Planner

Search our weather history database for the weather conditions in past years. The results will help you decide how hot, cold, wet, or windy it might be!

Date:

Astronomy

Oct. 18, 2013 Rise Set
Actual Time 7:39 AM CDT 6:38 PM CDT
Civil Twilight 7:11 AM CDT 7:06 PM CDT
Nautical Twilight 6:39 AM CDT 7:38 PM CDT
Astronomical Twilight 6:07 AM CDT 8:10 PM CDT
Moon 6:28 PM CDT (10/18) 7:16 AM CDT (10/18)
Length of Visible Light 11h 54m
Length of Day
10h 58m
Full, 100% of the Moon is Illuminated
Oct 18
Full
Oct 18
Full
Oct 26
Last Quarter
Nov 3
New
Nov 9
First Quarter

Hourly Weather History & Observations

Time (CDT) Temp. Windchill Dew Point Humidity Pressure Visibility Wind Dir Wind Speed Gust Speed Precip Events Conditions
12:15 AM 43.9 °F 39.3 °F 37.0 °F 77% 30.03 in 10.0 mi NW 8.1 mph - N/A   Overcast
12:35 AM 43.3 °F 37.7 °F 34.9 °F 72% 30.03 in 10.0 mi NW 10.4 mph - N/A   Overcast
12:55 AM 42.1 °F 37.7 °F 34.7 °F 75% 30.03 in 10.0 mi NW 6.9 mph - N/A   Overcast
1:15 AM 41.0 °F 36.4 °F 34.3 °F 77% 30.03 in 10.0 mi NW 6.9 mph - N/A   Overcast
1:35 AM 40.1 °F 36.1 °F 34.2 °F 79% 30.04 in 10.0 mi WNW 5.8 mph - N/A   Scattered Clouds
1:55 AM 38.8 °F 33.8 °F 33.8 °F 82% 30.04 in 10.0 mi WNW 6.9 mph - N/A   Clear
2:15 AM 38.3 °F 33.2 °F 34.0 °F 84% 30.04 in 10.0 mi WNW 6.9 mph - N/A   Clear
2:35 AM 37.8 °F 32.5 °F 33.8 °F 86% 30.04 in 10.0 mi WNW 6.9 mph - N/A   Clear
2:55 AM 37.2 °F 34.7 °F 33.3 °F 86% 30.05 in 10.0 mi West 3.5 mph - N/A   Clear
3:15 AM 36.5 °F 31.8 °F 32.9 °F 87% 30.04 in 10.0 mi WNW 5.8 mph - N/A   Clear
3:35 AM 36.1 °F 30.6 °F 32.9 °F 88% 30.05 in 10.0 mi West 6.9 mph - N/A   Clear
3:55 AM 36.1 °F 29.9 °F 32.9 °F 88% 30.05 in 10.0 mi WNW 8.1 mph - N/A   Clear
4:15 AM 36.0 °F 29.6 °F 32.5 °F 87% 30.05 in 10.0 mi WNW 8.1 mph - N/A   Clear
4:35 AM 35.8 °F 28.8 °F 32.2 °F 87% 30.06 in 10.0 mi West 9.2 mph - N/A   Clear
4:55 AM 35.6 °F 29.2 °F 32.0 °F 87% 30.05 in 10.0 mi WNW 8.1 mph - N/A   Clear
5:15 AM 35.2 °F 28.8 °F 31.8 °F 87% 30.06 in 10.0 mi WNW 8.1 mph - N/A   Clear
5:35 AM 34.9 °F 28.3 °F 31.1 °F 86% 30.06 in 10.0 mi WNW 8.1 mph - N/A   Clear
5:55 AM 34.9 °F 29.9 °F 31.1 °F 86% 30.07 in 10.0 mi West 5.8 mph - N/A   Clear
6:15 AM 34.9 °F 28.3 °F 30.9 °F 85% 30.07 in 10.0 mi WNW 8.1 mph - N/A   Clear
6:35 AM 34.3 °F 30.2 °F 30.9 °F 87% 30.06 in 10.0 mi NW 4.6 mph - N/A   Clear
6:55 AM 34.2 °F 29.0 °F 30.7 °F 87% 30.07 in 10.0 mi WNW 5.8 mph - N/A   Clear
7:15 AM 34.0 °F 29.8 °F 30.7 °F 88% 30.08 in 10.0 mi West 4.6 mph - N/A   Clear
7:35 AM 33.8 °F 28.6 °F 30.6 °F 88% 30.08 in 10.0 mi West 5.8 mph - N/A   Clear
7:55 AM 33.8 °F 29.6 °F 30.6 °F 88% 30.09 in 10.0 mi West 4.6 mph - N/A   Clear
8:15 AM 34.0 °F 29.8 °F 30.7 °F 88% 30.09 in 10.0 mi WNW 4.6 mph - N/A   Clear
8:35 AM 34.5 °F 31.6 °F 30.9 °F 87% 30.09 in 10.0 mi West 3.5 mph - N/A   Clear
8:55 AM 35.1 °F 31.0 °F 31.1 °F 85% 30.10 in 10.0 mi West 4.6 mph - N/A   Clear
9:15 AM 35.8 °F 33.0 °F 31.8 °F 86% 30.12 in 10.0 mi West 3.5 mph - N/A   Clear
9:35 AM 36.5 °F 31.8 °F 32.0 °F 84% 30.12 in 10.0 mi WNW 5.8 mph - N/A   Clear
9:55 AM 37.6 °F 34.0 °F 32.0 °F 80% 30.11 in 10.0 mi NW 4.6 mph - N/A   Clear
10:15 AM 38.8 °F 35.4 °F 32.0 °F 76% 30.11 in 10.0 mi WNW 4.6 mph - N/A   Clear
10:35 AM 39.9 °F 36.7 °F 32.0 °F 73% 30.11 in 10.0 mi WNW 4.6 mph - N/A   Clear
10:55 AM 41.4 °F 38.4 °F 32.2 °F 70% 30.12 in 10.0 mi West 4.6 mph - N/A   Clear
11:15 AM 42.1 °F 38.4 °F 32.2 °F 68% 30.12 in 10.0 mi WNW 5.8 mph - N/A   Clear
11:35 AM 43.5 °F 40.9 °F 32.4 °F 65% 30.11 in 10.0 mi WNW 4.6 mph - N/A   Clear
11:55 AM 44.6 °F 40.7 °F 31.8 °F 61% 30.10 in 10.0 mi NW 6.9 mph - N/A   Clear
12:15 PM 45.1 °F 42.0 °F 32.0 °F 60% 30.10 in 10.0 mi WNW 5.8 mph - N/A   Clear
12:35 PM 46.4 °F 43.5 °F 31.6 °F 56% 30.10 in 10.0 mi WNW 5.8 mph - N/A   Clear
12:55 PM 46.4 °F 43.5 °F 30.7 °F 54% 30.10 in 10.0 mi West 5.8 mph - N/A   Clear
1:15 PM 46.8 °F - 30.7 °F 54% 30.10 in 10.0 mi West 6.9 mph - N/A   Clear
1:35 PM 47.7 °F - 30.6 °F 52% 30.08 in 10.0 mi West 5.8 mph - N/A   Clear
1:55 PM 47.7 °F - 29.1 °F 49% 30.07 in 10.0 mi WNW 4.6 mph - N/A   Clear
2:15 PM 48.2 °F - 28.8 °F 47% 30.06 in 10.0 mi WNW 4.6 mph - N/A   Clear
2:35 PM 48.7 °F - 28.9 °F 46% 30.05 in 10.0 mi WSW 6.9 mph - N/A   Clear
2:55 PM 50.0 °F - 29.8 °F 46% 30.05 in 10.0 mi West 6.9 mph - N/A   Scattered Clouds
3:15 PM 49.5 °F - 29.5 °F 46% 30.04 in 10.0 mi West 9.2 mph - N/A   Scattered Clouds
3:35 PM 49.1 °F - 27.9 °F 44% 30.04 in 10.0 mi WSW 6.9 mph - N/A   Scattered Clouds
3:55 PM 49.8 °F - 26.2 °F 40% 30.04 in 10.0 mi WNW 9.2 mph - N/A   Scattered Clouds
4:15 PM 49.6 °F - 26.4 °F 41% 30.04 in 10.0 mi WNW 6.9 mph - N/A   Scattered Clouds
4:35 PM 49.6 °F - 27.0 °F 41% 30.04 in 10.0 mi West 9.2 mph - N/A   Clear
4:55 PM 50.5 °F - 26.4 °F 39% 30.03 in 10.0 mi WSW 6.9 mph - N/A   Scattered Clouds
5:15 PM 49.5 °F - 26.6 °F 41% 30.03 in 10.0 mi WSW 5.8 mph - N/A   Clear
5:35 PM 49.5 °F - 27.3 °F 42% 30.03 in 10.0 mi SSW 6.9 mph - N/A   Scattered Clouds
5:55 PM 50.0 °F - 27.3 °F 41% 30.02 in 10.0 mi SW 6.9 mph - N/A   Scattered Clouds
6:15 PM 48.7 °F - 27.3 °F 43% 30.01 in 10.0 mi SSW 8.1 mph - N/A   Clear
6:35 PM 46.2 °F 42.7 °F 27.9 °F 49% 30.01 in 7.0 mi SSW 6.9 mph - N/A   Clear
6:55 PM 44.4 °F 41.2 °F 28.2 °F 53% 30.01 in 7.0 mi SSW 5.8 mph - N/A   Clear
7:15 PM 42.8 °F 40.1 °F 28.0 °F 56% 30.01 in 10.0 mi SSW 4.6 mph - N/A   Clear
7:35 PM 41.2 °F 37.3 °F 28.4 °F 60% 30.01 in 7.0 mi SSW 5.8 mph - N/A   Clear
7:55 PM 40.1 °F 36.1 °F 28.4 °F 63% 30.01 in 5.0 mi South 5.8 mph - N/A   Haze
8:15 PM 40.1 °F 36.1 °F 28.4 °F 63% 30.01 in 10.0 mi SSW 5.8 mph - N/A   Clear
8:35 PM 40.5 °F 36.5 °F 28.4 °F 62% 30.01 in 10.0 mi SSW 5.8 mph - N/A   Clear
8:55 PM 40.1 °F 36.1 °F 28.4 °F 63% 30.01 in 10.0 mi SSW 5.8 mph - N/A   Clear
9:15 PM 40.6 °F 36.7 °F 28.0 °F 61% 30.01 in 10.0 mi SW 5.8 mph - N/A   Scattered Clouds
9:35 PM 40.6 °F 36.0 °F 28.6 °F 62% 30.00 in 10.0 mi SW 6.9 mph - N/A   Overcast
9:55 PM 41.5 °F 37.8 °F 28.4 °F 60% 30.00 in 10.0 mi SW 5.8 mph - N/A   Overcast
10:15 PM 41.4 °F 37.6 °F 28.8 °F 61% 30.00 in 10.0 mi SW 5.8 mph - N/A   Overcast
10:35 PM 42.1 °F 38.4 °F 29.1 °F 60% 30.00 in 10.0 mi SW 5.8 mph - N/A   Overcast
10:55 PM 40.6 °F 37.5 °F 29.1 °F 64% 30.00 in 10.0 mi SW 4.6 mph - N/A   Scattered Clouds
11:15 PM 39.6 °F 35.4 °F 29.1 °F 66% 29.99 in 10.0 mi WSW 5.8 mph - N/A   Clear
11:35 PM 37.8 °F 34.2 °F 29.3 °F 72% 29.99 in 10.0 mi WSW 4.6 mph - N/A   Clear
11:55 PM 38.5 °F 35.0 °F 29.7 °F 71% 29.99 in 10.0 mi WSW 4.6 mph - N/A   Clear